Flag for Switzerland Weather past 2 weeks in Liestal, Basel-Land, Switzerland

Now
68 °F

Scattered clouds.


Feels Like: 68 °F
Forecast: 55 / 75 °F
Wind: 9 mph from West

Location: Bale-Mulhouse

Current Time: Aug 27, 2014 at 3:13:29 PM

Latest Report: Aug 27, 2014 at 2:30 PM


Visibility: N/A

Pressure: 30.01 "Hg

Humidity: 64%

Dew point: 55 °F

Location of LiestalLocation

Historic Weather in Liestal — Graph

°F

Liestal temperature yesterday

Maximum temperature yesterday: 73 °F (at 4:30 PM)
Minimum temperature yesterday: 57 °F (at 1:30 AM)
Average temperature yesterday: 63 °F

Past Weeks' High & Low Weather Summary

 TemperatureHumidityPressure
High73 °F (Aug 12, 3:30 PM)100% (Aug 15, 2:00 AM)30.18 "Hg (Aug 15, 2:00 AM)
Low46 °F (Aug 21, 6:30 AM)40% (Aug 22, 1:30 PM)29.68 "Hg (Aug 13, 9:00 AM)
Average60 °F76%29.99 "Hg
* Reported Aug 12 2:00 PM — Aug 27 2:00 PM, Liestal, Weather by CustomWeather, © 2014

Note: Actual official high and low records may vary slightly from our data, if they occured in-between our weather recording intervals... More about our weather records

Advertising

Liestal weather history for previous 24 hours

 ConditionsComfort  
Time TempWeatherWind HumidityBarometerVisibility
2:00 PM
Aug 27
70 °FScattered clouds.6 mph64%30.01 "HgN/A
1:30 PM68 °FScattered clouds.7 mph69%30.01 "HgN/A
1:00 PM68 °FScattered clouds.7 mph69%30.01 "HgN/A
12:30 PM66 °FScattered clouds.7 mph73%30.01 "HgN/A
12:00 PM66 °FSprinkles. Broken clouds.9 mph73%30.01 "HgN/A
11:30 AM68 °FBroken clouds.6 mph69%30.01 "HgN/A
11:00 AM66 °FBroken clouds.6 mph73%30.01 "HgN/A
10:30 AM66 °FBroken clouds.8 mph73%30.01 "HgN/A
10:00 AM64 °FBroken clouds.6 mph78%30.01 "HgN/A
9:30 AM64 °FBroken clouds.6 mph78%29.98 "HgN/A
9:00 AM63 °FPartly sunny.6 mph88%29.98 "HgN/A
8:30 AM63 °FScattered clouds.5 mph88%29.98 "HgN/A
8:00 AM63 °FScattered clouds.8 mph83%29.95 "HgN/A
7:30 AM61 °FPassing clouds.7 mph88%29.95 "HgN/A
7:00 AM61 °FPassing clouds.8 mph88%29.95 "HgN/A
6:30 AM61 °FPartly cloudy.6 mph88%29.92 "HgN/A
6:00 AM61 °FPassing clouds.8 mph88%29.92 "HgN/A
5:30 AM61 °FPassing clouds.7 mph94%29.92 "HgN/A
5:00 AM61 °FOvercast.7 mph94%29.92 "HgN/A
4:24 AM61 °FClear.8 mph94%29.89 "Hg10 mi
4:00 AM59 °FOvercast.3 mph94%29.89 "HgN/A
3:30 AM59 °FPassing clouds.3 mph94%29.89 "HgN/A
3:00 AM59 °FPartly cloudy.3 mph94%29.89 "HgN/A
2:30 AM59 °FPassing clouds.5 mph94%29.89 "HgN/A
2:00 AM61 °FPassing clouds.8 mph88%29.89 "HgN/A
1:30 AM61 °FMostly cloudy.5 mph88%29.89 "HgN/A
1:00 AM61 °FPassing clouds.5 mph88%29.89 "HgN/A
12:30 AM59 °FPassing clouds.6 mph94%29.86 "HgN/A
12:00 AM61 °FScattered showers. Passing clouds.5 mph94%29.86 "HgN/A
11:30 PM
Aug 26
61 °FSprinkles. Partly cloudy.6 mph88%29.86 "HgN/A
11:00 PM63 °FSprinkles. Partly cloudy.12 mph83%29.86 "Hg5 mi
10:30 PM63 °FSprinkles. Partly cloudy.3 mph83%29.83 "HgN/A
10:00 PM63 °FPartly cloudy.1 mph77%29.83 "HgN/A
9:30 PM64 °FPartly cloudy.5 mph73%29.83 "HgN/A
9:00 PM66 °FBroken clouds.7 mph68%29.83 "HgN/A
8:30 PM68 °FBroken clouds.9 mph64%29.80 "HgN/A
8:00 PM70 °FScattered showers. Broken clouds.9 mph60%29.80 "HgN/A
7:30 PM70 °FScattered showers. Broken clouds.9 mph60%29.80 "HgN/A
7:00 PM70 °FBroken clouds.9 mph64%29.77 "HgN/A
6:30 PM72 °FBroken clouds.12 mph57%29.77 "HgN/A
6:00 PM72 °FBroken clouds.15 mph57%29.77 "HgN/A
5:30 PM73 °FBroken clouds.9 mph57%29.77 "HgN/A
5:00 PM73 °FPartly sunny.8 mph61%29.74 "HgN/A
4:30 PM73 °FBroken clouds.12 mph61%29.77 "HgN/A
4:00 PM72 °FBroken clouds.9 mph65%29.77 "HgN/A
3:30 PM72 °FBroken clouds.5 mph69%29.77 "HgN/A
3:00 PM68 °FBroken clouds.3 mph73%29.77 "HgN/A
Weather by CustomWeather, © 2014

See weather overviewHow to use our weather pages